FENGYUN 1C DEB, 32141

Orbit data source: Space-Track

FENGYUN 1C DEB, 32141 is space debris in SSO originally from a launch on Mon, 10 May 1999 UTC launched from the Taiyaun Space Center, China (TSC). Fengyun 1C debris stems from the Chinese weather satellite Fengyun-1C, which was intentionally destroyed by a Chinese anti-satellite missile in 2007. This event dramatically increased the amount of space debris, with thousands of trackable fragments posing hazards to satellites and human spaceflight. The Fengyun 1C debris cloud has become a focal point in discussions about space sustainability and the need for international regulations to prevent the creation of new debris.

Loading next visibility...
Identifier
32141, 1999-025CSK
Orbit
SSO
Country
Flag of CNCN / PRC
Related business
Manufacturer
Unknown
Mission
Spacecraft
Bus & Motor
Unknown
Mass
Unknown
Launch date (UTC)
1999-05-10 (26 years ago)
Launch vehicle
Unknown
Launch site
Taiyaun Space Center, China (TSC)
Object type
Payload
Rocket body
Debris
Shape & HBR
Unknown shape, 0.1 m
Radar Cross Section
Small (<0.1 m²)

Expand to show TLE details & history
Last TLE update: 3 days ago

TLE from 3 days ago
0 FENGYUN 1C DEB
1 32141U 99025CSK 25307.28152465  .00000980  00000-0  63806-3 0  9999
2 32141  98.7456 311.1978 0073676 319.3231  40.2447 14.03453690943904
Epoch: 2025-11-03T06:45Z
TLE epoch observation values (Epoch: 2025-11-03T06:45:23.729Z)
Latitude
-0.00006°
Longitude
167.06379°
Altitude
844.081 km
Speed
7.451 km/s
True Right ascension
20h 44m 47s
True Declination
0° 00' 00"
Sunlit
Object was in daylight at epoch
Visualization orbit readout
Latitude
Unknown
Longitude
Unknown
Altitude
Unknown
Speed
Unknown
Apparent Right ascension
Unknown
Apparent Declination
Unknown
Sunlit
N/A
Visualization observer readout
Local Sidereal Time
11:12:58
Azimuth
Unknown
Elevation
Unknown
Doppler factor
Unknown
Orbital elements
Apogee altitude
932.51 km
Perigee altitude
825.574 km
Semi-major axis
7,257.179 km
Eccentricity
0.00737
Inclination
98.7456°
RAAN
311.1978°
Arg. of periapsis
319.3231°
True anomaly
40.79399°
Mean anomaly
40.2447°
Eccentric anomaly
40.51896°
Mean motion
3.51068 °/min
Orbital period
102.54 mins
BSTAR
0.00063806
Loading maneuver chart data...
Computing Atmospheric mass density...

Documentation

Showing up to 5 results
|